Regional Weather Roundup
Issued by NWS State College, PA

Home | Current Version | Previous Version | Graphics & Text | Print | Product List | Glossary On
Versions: 1 2 3 4 5 6 7 8 9 10 11 12 13 14 15 16 17 18 19 20 21 22 23 24 25 26 27 28 29 30 31 32 33 34 35 36 37 38 39 40 41 42 43 44 45 46 47 48 49 50
000
ASUS41 KCTP 281303
RWRCTP

REGIONAL WEATHER ROUNDUP
NATIONAL WEATHER SERVICE STATE COLLEGE PA
900 AM EDT THU AUG 28 2014

Note: "fair" indicates few or no clouds below 12,000 feet with no
significant weather and/or obstructions to visibility.

* = STATION THAT DOES NOT REPORT PRECIPITATION /E.G. RAIN...SNOW...ETC/
    THUNDER OR FOG.

PAZ002>004-007>009-013>016-020>023-029>032-281400-
WESTERN PENNSYLVANIA

CITY           SKY/WX    TMP DP  RH WIND       PRES   REMARKS
ERIE           MOSUNNY   63  49  60 N10       30.13R
MEADVILLE      SUNNY     60  49  66 NW8       30.14R
FRANKLIN*      SUNNY     59  48  67 NW6       30.14S
NEW CASTLE     FAIR      61  55  80 CALM      30.15R
BEAVER COUNTY  SUNNY     61  55  82 N5        30.14R
BUTLER*        SUNNY     61  54  77 N6        30.15S
PITTSBURGH INT MOSUNNY   63  54  72 N12       30.13R
PITTSBURGH     SUNNY     62  52  69 N6        30.12R
INDIANA*       SUNNY     61  55  82 VRB5      30.15S
LATROBE        PTSUNNY   63  61  94 CALM      30.13R
WASHINGTON CO* SUNNY     63  55  77 NE6       30.13S
$$

PAZ004>006-010>012-017>019-024>028-033>037-041-042-045-046-049>053-281400-
CENTRAL PENNSYLVANIA

CITY           SKY/WX    TMP DP  RH WIND       PRES   REMARKS
BRADFORD       CLOUDY    56  49  77 NW9       30.11R
DUBOIS         MOSUNNY   57  52  83 NW12      30.10R
CLEARFIELD     PTSUNNY   60  53  77 NW10      30.09R
JOHNSTOWN      MOSUNNY   59  53  80 NW10      30.11R
ALTOONA        MOSUNNY   63  56  78 N14       30.08S
STATE COLLEGE  MOSUNNY   64  55  72 NW9       30.07R
WILLIAMSPORT   PTSUNNY   68  51  54 N9        30.01S
SELINSGROVE    CLOUDY    67  57  70 N7        30.03R
FT INDIANTOWN  SUNNY     68  57  66 VRB7G21   30.01R
CAPITAL CITY   MOSUNNY   69  56  62 N12G18    30.01R
HARRISBURG     MOSUNNY   71  57  61 NW14      30.00R
YORK           MOSUNNY   70  60  70 N9        30.00S
$$

PAZ038>040-043-044-047-048-054-055-060>062-067>071-281400-
EASTERN PENNSYLVANIA

CITY           SKY/WX    TMP DP  RH WIND       PRES   REMARKS
SCRANTON       MOSUNNY   62  51  67 N10G22    30.02R
MOUNT POCONO   MOSUNNY   60  50  69 NW14G22   30.00R
ALLENTOWN      SUNNY     67  53  61 NW12      29.97S
QUAKERTOWN*    SUNNY     66  55  68 MISG      29.98R
READING        SUNNY     69  56  62 N9        29.98R
LANCASTER      SUNNY     68  56  65 N14       29.99R
COATESVILLE    SUNNY     68  63  83 N14       29.99R
POTTSTOWN      SUNNY     68  55  63 N10       29.98R
BLUE BELL      SUNNY     70  55  60 NW5       29.95R
DOYLESTOWN     SUNNY     69  56  62 N9        29.95R
WILLOW GROVE   NOT AVBL
NORTH PHILA    SUNNY     73  55  53 N13       29.96R
PHILADELPHIA   MOSUNNY   72  55  55 N15       29.95R
$$


USA.gov is the U.S. government's official web portal to all federal, state and local government web resources and services.